Welcome to the New NWS' Forecast!
Most changes are behind the scenes, but click here for differences you might notice.
Latest weather observations around

Norwood, Norwood Memorial Airport (KOWD)

Using English Units (Switch to International System of Units)
Date/ Time (EST) Wind (mph) Vis. (mi) Weather Sky Cond. Temp (°F) Rel. Humidity Wind Chill (°F) Heat Index (°F) Pressure Precip. (in)
Air Dwpt 6 hour Altimeter (inHg) Sea level (inHg) 1 hr 3 hr 6 hr
Max Min
Nov 21 12:53 SW 14 10 Clear CLR 61 29     30%     30.02 30.02      
Nov 21 11:53 SSW 21 10 Clear and Windy CLR 60 29     31%     30.05 30.04      
Nov 21 10:53 SSW 16 10 Clear CLR 58 29     33%     30.08 30.08      
Nov 21 09:53 S 10 10 Clear CLR 54 30     40%     30.11 30.11      
Nov 21 08:53 SSW 9 10 Clear CLR 49 31     50% 45   30.11 30.11      
Nov 21 07:53 SSE 6 10 Clear CLR 40 32     73% 36   30.12 30.12      
Nov 21 06:53 SSE 3 10 Clear CLR 32 25     75% 29   30.11 30.11      
Nov 21 05:53 SSE 6 10 Clear CLR 35 26     69% 30   30.09 30.09      
Nov 21 04:53 S 5 10 Clear CLR 32 25     75% 27   30.1 30.1      
Nov 21 03:53 SSE 6 10 Clear CLR 34 25     69% 29   30.09 30.09      
Nov 21 02:53 Calm 10 Clear CLR 34 26     72%     30.11 30.11      
Nov 21 01:53 S 6 10 Clear CLR 33 25     72% 28   30.1 30.1      
Nov 21 00:53 S 5 10 Clear CLR 37 27     67% 33   30.09 30.09      
Nov 20 23:53 S 6 10 Mostly Cloudy BKN055 39 28     64% 35   30.08 30.08      
Nov 20 22:53 S 5 10 Cloudy OVC050 42 28     57% 39   30.08 30.07      
Nov 20 21:53 WSW 8 10 Mostly Cloudy BKN060 42 28     57% 37   30.07 30.07      
Nov 20 20:53 WSW 6 10 Mostly Clear FEW049 39 26     59% 35   30.04 30.04      
Nov 20 19:53 WSW 6 10 Clear CLR 41 25     53% 37   30.03 30.03      
Nov 20 18:53 WSW 9 10 Clear CLR 41 22     46% 35   30.01 30.01      
Nov 20 17:53 SW 5 10 Partly Cloudy SCT065 39 20     46% 36   29.99 29.98      
Nov 20 16:53 WSW 5 10 Cloudy OVC070 41 20     43% 38   29.96 29.96      
Nov 20 15:53 SW 7 10 Partly Cloudy SCT065 41 19     41% 36   29.95 29.95      
Nov 20 14:53 W 14 10 Mostly Clear FEW055 42 19     39% 35   29.94 29.93      
Nov 20 13:53 W 15 10 Cloudy BKN060 OVC075 44 18     35% 37   29.92 29.92      
Nov 20 12:53 W 14 10 Mostly Cloudy BKN065 42 18     37% 35   29.91 29.91      
Nov 20 11:53   10 Mostly Cloudy BKN060 44 16     32%     29.91 29.91      
Nov 20 10:53 W 21 10 Partly Cloudy and Windy SCT060 43 16     33% 34   29.91 29.91      
Nov 20 09:53 W 18 10 Mostly Clear FEW060 41 15     34% 32   29.91 29.91      
Nov 20 08:53   10 Clear CLR 39 16     39%     29.88 29.88      
Nov 20 07:53 W 10 10 Clear CLR 38 16     40% 31   29.87 29.88      
Nov 20 06:53 W 18 10 Clear CLR 36 18     48% 26   29.85 29.85 0   0
Nov 20 05:53 W 10 10 Clear CLR 36 23     59% 29   29.81 29.8      
Nov 20 04:53 W 7 10 Partly Cloudy SCT046 37 24     59% 32   29.78 29.78      
Nov 20 03:53 WSW 6 10 Mostly Cloudy BKN055 37 25     61% 32   29.75 29.75      
Nov 20 02:53 SW 5 10 Clear CLR 36 25     64% 32   29.73 29.73      
Nov 20 01:53 SW 8 10 Clear CLR 37 25     61% 31   29.72 29.71      
Nov 20 00:53 WSW 11 10 Clear CLR 38 26     62% 30   29.68 29.68      
Nov 19 23:53 WSW 9 10 Clear CLR 38 25     59% 31   29.66 29.66      
Nov 19 22:53 W 9 10 Clear CLR 39 24     55% 33   29.65 29.64      
Nov 19 21:53 W 9 10 Clear CLR 41 24     51% 35   29.63 29.62      
Nov 19 20:53 W 14 10 Clear CLR 41 24     51% 33   29.6 29.6      
Nov 19 19:53 W 14 10 Partly Cloudy SCT041 41 26     55% 33   29.58 29.58      
Nov 19 18:53 W 10 10 Partly Cloudy SCT041 41 28     60% 35   29.55 29.55     0
Nov 19 17:53 W 13 10 Clear CLR 42 28     57% 35   29.5 29.5      
Nov 19 16:53   10 Clear CLR 44 27     51%     29.46 29.46 0    
Nov 19 15:53 WNW 22 10 Light Rain CLR 46 28     49% 38   29.4 29.4 0 0  
Nov 19 14:53 W 24 10 Clear and Windy CLR 49 31     50% 41   29.34 29.34 0    
Nov 19 13:53 W 18 10 Partly Cloudy SCT050 50 33     52% 44   29.29 29.28      
Nov 19 12:53 W 20 10 Mostly Clear and Windy FEW049 52 37     57%     29.24 29.23 0   0
Nov 19 11:53 W 17 10 Light Rain FEW019 SCT025 OVC037 53 47     80%     29.19 29.19 0    
Nov 19 11:42   9 Light Rain SCT021 BKN030 OVC037 54 48     80%     29.17   0    
Nov 19 11:12 SSW 15 10 Cloudy FEW022 BKN029 OVC100 62 56     80%     29.13   0    
Nov 19 11:03 SSW 11 10 Light Rain SCT023 BKN080 OVC100 62 57     84%     29.14   0    
Nov 19 10:53 SSW 9 9 Light Rain SCT021 BKN027 OVC080 61 56     83%     29.14 29.14 0    
Nov 19 09:53 S 14 10 Cloudy FEW016 BKN025 OVC055 61 58     90%     29.15 29.15 0 0  
Nov 19 08:53 S 11 3 Rain and Fog/Mist BKN017 OVC024 61 58     90%     29.18 29.17 0    
Nov 19 07:53 S 9 10 Cloudy SCT014 OVC022 61 58     90%     29.19 29.18 0    
Nov 19 06:53 S 11 7 Light Rain FEW013 BKN026 OVC050 61 58     90%     29.23 29.22 0   0
Nov 19 05:53 S 10 10 Cloudy BKN015 OVC022 61 58     90%     29.24 29.23 0    
Nov 19 05:45 S 10 7 Light Rain BKN019 BKN029 OVC047 60 58     93%     29.24   0    
Nov 19 04:53 SSW 13 5 Rain and Fog/Mist SCT025 BKN030 OVC037 61 57     87%     29.27 29.27 0    
Nov 19 03:53 SSW 11 10 Cloudy OVC024 61 56     83%     29.31 29.3   0  
Nov 19 02:53 S 11 10 Cloudy OVC025 59 56     90%     29.34 29.33      
Nov 19 02:15 S 10 10 Cloudy BKN029 OVC035 57 55     93%     29.36        
Nov 19 01:53 S 9 10 Cloudy FEW024 OVC032 57 54     89%     29.38 29.38 0    
Nov 19 00:53 S 7 10 Light Rain SCT011 BKN023 OVC038 54 52     93%     29.43 29.43 0   0
Nov 19 00:45 S 5 10 Light Rain SCT011 BKN021 OVC032 54 52     93%     29.44   0    
Nov 18 23:53 S 6 7 Light Rain FEW022 BKN038 OVC095 53 51     93%     29.48 29.48 0    
Nov 18 22:53 S 10 10 Cloudy FEW025 OVC047 54 50     86%     29.51 29.5      
Nov 18 22:43 S 13 10 Cloudy FEW027 OVC043 52 50     93%     29.51        
Nov 18 22:34 S 8 10 Cloudy BKN025 BKN033 OVC043 51 49     92%     29.51        
Nov 18 21:53 Calm 6 Fog/Mist OVC034 45 44     97%     29.54 29.54 0 0  
Nov 18 20:53 Calm 6 Fog/Mist OVC060 44 43     96%     29.58 29.58 0    
Nov 18 19:53 Calm 8 Light Rain FEW040 OVC055 44 42     93%     29.62 29.62 0    
Nov 18 18:53 Calm 10 Cloudy OVC065 44 42     93%     29.66 29.66 0   0
Nov 18 17:53 Calm 10 Light Rain OVC085 43 39     86%     29.68 29.68 0    
Nov 18 16:53 Calm 10 Light Rain OVC085 44 37     76%     29.71 29.7 0    
Nov 18 15:53 ESE 3 10 Mostly Cloudy BKN110 47 33     58% 46   29.72 29.72      
Nov 18 14:53 S 5 10 Clear CLR 47 31     53% 45   29.76 29.76      
Nov 18 13:53 S 7 10 Clear CLR 47 30     52% 44   29.79 29.8      
Jun 12 05:53 Calm 10 Clear CLR 69 65     87%     29.96 29.96      
Jun 10 22:53 SSW 7 10 Clear   73 56     55%   73 29.99 29.99      
Jun 10 15:53 S 13 10 Clear CLR 83 55     38%   82 29.91 29.91      
Jun 08 08:53 Calm 10 Clear CLR 66 55     68%     30.04 30.04      
Jun 07 22:53 Calm 10 Clear CLR 52 50     93%     30.02 30.02      
Jun 07 11:53 NE 8 10 Cloudy OVC075 64 50     60%     29.96 29.96      
Jun 06 13:35 NNE 14 6 Light Rain and Fog/Mist SCT009 SCT018 OVC039 49 47     93% 44   29.83   0    
Jun 06 11:53 NE 11 1.25 Light Rain and Fog/Mist BKN007 OVC014 50 48     93% 46   29.84 29.83 0    
Notice The following observation data may not be complete
Jun 06 05:05   1.75 Fog/Mist OVC006          %              
Jun 05 21:53 ENE 9 2.5 Light Rain and Fog/Mist OVC006 54 53     97%     29.84 29.83 0    
Jun 05 18:53 ENE 8 1.75 Fog/Mist OVC006 55 53     93%     29.83 29.82